Temp
14 14 14 14 14 12 14 14 14 13 15 15 17 18 18 18 18 19 20 20 19 19 17 16 16 16 17 17 17 17 17 17 16 16 16 16 16 16 16 16 16 16 16 16 16 15 15 15 15
13 13 13 13 13 13 15 13 13 15 17 16 17 17 17 19 20 21 21 19 18 18 17 16 16 16 16 16 17 17 17 16 15 16 16 16 16 16 16 16 16 16 16 15 15 15 15 15 15
12 12 12 12 10 14 15 12 14 14 16 17 16 17 18 19 21 21 21 19 18 17 17 16 16 16 16 16 17 17 16 16 16 16 16 16 16 15 15 15 15 15 15 15 15 15 15 15 15
9 10 10 9 10 10 15 12 13 14 15 16 17 17 18 20 20 21 21 19 18 17 17 16 16 16 16 16 17 16 15 16 16 16 15 15 15 15 15 15 15 16 16 15 15 15 15 15 15
9 10 8 7 9 9 8 12 13 14 15 17 16 17 17 19 20 20 20 19 18 17 16 15 16 16 16 16 16 15 15 15 15 15 15 15 15 15 15 15 15 15 15 15 15 15 15 15 15
9 8 7 11 9 9 9 13 12 13 14 14 14 16 18 19 19 19 18 17 16 16 16 15 15 16 16 16 16 16 15 15 15 15 15 15 15 15 14 14 14 15 15 15 14 14 14 14 14
10 8 10 12 12 9 11 12 12 12 12 14 16 17 18 19 19 18 16 16 15 15 15 15 15 15 15 16 16 16 16 15 15 15 15 15 15 14 14 14 14 14 14 14 14 14 14 14 14
9 9 10 10 11 11 10 11 14 13 13 15 16 15 17 19 18 17 16 14 14 14 15 15 15 15 15 16 16 16 15 15 15 15 15 14 14 14 14 14 14 14 14 14 14 14 14 14 14
9 9 10 11 10 11 10 10 12 15 15 15 16 17 17 17 16 15 14 13 14 14 15 15 15 15 15 15 15 15 15 15 15 15 14 14 13 14 14 14 14 14 14 15 15 15 14 14 14
9 9 11 12 11 11 11 11 13 13 12 13 15 17 17 16 13 13 13 13 14 15 15 15 14 14 14 14 15 15 15 14 14 14 13 14 13 13 13 13 14 14 15 14 14 14 13 13 13
9 10 12 12 12 12 12 10 13 12 11 13 14 17 16 14 12 13 13 14 15 15 14 15 14 14 14 14 14 14 14 14 14 14 14 14 14 13 14 14 14 14 14 14 13 13 13 13 13
7 10 10 12 12 11 12 11 11 12 14 16 16 17 16 12 12 12 13 13 13 14 15 15 14 14 14 14 13 14 14 14 14 14 14 14 14 14 14 14 13 13 13 13 13 13 13 12 12
7 9 11 11 11 11 12 11 12 11 14 15 16 16 16 13 12 13 13 13 14 14 15 14 13 13 14 14 13 13 14 14 15 14 14 14 14 14 14 13 13 13 13 13 13 13 12 13 12
7 8 8 9 9 9 11 10 10 11 14 14 15 15 15 15 12 12 12 13 14 14 14 15 14 13 13 14 14 13 14 14 15 14 14 14 14 14 14 13 13 13 13 13 13 13 13 12 12
6 5 7 8 9 9 9 8 10 11 13 14 13 14 15 14 14 12 13 13 14 13 14 14 14 14 13 13 13 14 14 14 15 15 14 14 14 14 14 13 13 13 12 13 13 12 12 12 12
4 5 5 7 8 9 8 9 11 11 12 11 13 14 15 14 12 13 13 12 13 14 14 14 13 14 13 13 13 13 13 14 14 14 14 14 13 13 13 13 13 12 12 13 12 12 12 12 12
3 5 5 6 8 8 7 8 9 11 11 10 11 12 13 12 11 12 12 12 12 13 14 14 14 13 13 13 13 13 12 13 14 13 13 13 13 13 13 13 13 12 12 12 12 12 12 12 11
3 4 5 6 7 7 8 8 8 10 10 11 11 12 11 11 11 12 12 12 12 13 14 14 14 13 13 13 12 12 12 12 12 12 13 13 13 13 13 13 13 12 12 12 12 12 11 11 11
3 3 4 4 8 7 7 8 10 9 10 11 10 11 10 10 12 12 12 13 12 12 13 14 14 13 13 13 12 12 12 12 12 12 12 12 12 12 12 13 13 12 12 12 12 12 11 11 11
2 2 2 4 5 3 7 7 8 9 9 10 11 9 10 11 10 11 12 13 12 12 12 13 14 13 13 13 12 12 12 12 12 11 11 12 12 12 12 12 13 13 12 12 12 12 12 12 11
2 2 3 4 5 5 6 7 7 8 9 9 9 10 10 11 10 11 12 12 12 12 12 12 14 14 13 12 12 12 12 12 12 12 12 11 12 12 12 12 12 12 12 12 12 12 12 12 11
-0 2 4 3 4 4 6 8 7 9 9 9 8 8 9 10 11 11 12 11 12 13 12 12 13 14 14 14 12 12 13 12 12 12 12 11 11 11 11 12 12 12 12 12 11 11 11 11 12
1 3 4 4 4 3 4 6 7 8 8 9 7 7 8 9 10 10 11 11 11 13 11 12 13 14 13 12 12 12 13 13 13 12 11 11 11 11 11 11 11 11 11 11 11 10 10 10 10
1 2 3 3 3 4 3 3 5 5 5 7 7 8 8 8 10 10 10 11 11 12 11 11 12 13 13 12 12 12 12 14 13 12 11 11 11 11 11 11 11 11 11 10 10 10 9 9 9
-2 -2 3 3 3 4 4 4 1 -1 -0 0 1 4 8 8 9 9 10 10 10 11 11 11 12 12 12 12 11 10 11 13 13 13 12 11 11 11 11 11 11 11 10 10 9 9 9 8 8
-3 -2 -1 3 4 3 3 3 1 -2 -2 -0 1 2 4 7 8 8 9 10 10 10 10 11 11 11 11 11 11 10 11 11 11 12 12 12 11 10 10 10 11 10 9 9 9 8 8 8 8
-3 -2 -2 -0 -0 2 -1 -2 -2 -1 -1 -1 -1 3 4 6 7 8 7 9 10 10 10 11 11 11 11 11 11 10 10 10 11 10 10 10 10 10 10 9 9 8 8 8 7 8 7 7 7
-4 -3 -0 -2 2 -0 -2 -3 -2 -3 -3 -2 -2 -3 0 5 7 7 7 8 9 9 10 11 10 10 10 10 10 10 10 10 10 10 10 10 9 8 7 7 7 7 8 8 7 7 7 6 6
-3 -5 -4 -4 -1 -2 0 -4 -3 -4 -3 -3 -3 -3 -3 -0 4 6 6 7 8 9 9 9 9 9 9 9 9 9 9 9 8 9 8 8 9 7 8 7 7 6 7 9 6 7 6 6 6
-4 -4 -5 -4 -2 -4 -5 -5 -3 -4 -4 -4 -4 -4 -3 -2 -0 3 5 6 6 7 7 8 8 8 9 9 9 9 8 9 8 8 8 8 8 8 8 8 7 6 8 6 6 6 5 5 5
Height
1500 1502 1506 1511 1516 1514 1508 1506 1502 1509 1511 1508 1510 1512 1513 1513 1514 1521 1508 1510 1515 1519 1523 1528 1532 1535 1539 1542 1545 1548 1550 1553 1555 1559 1561 1562 1565 1566 1569 1570 1572 1574 1576 1577 1578 1579 1581 1582 1583
1498 1502 1506 1505 1507 1510 1496 1497 1497 1499 1502 1504 1508 1509 1511 1509 1508 1507 1508 1509 1513 1518 1522 1527 1532 1535 1538 1542 1545 1548 1551 1554 1557 1559 1561 1564 1566 1568 1569 1572 1574 1575 1577 1578 1581 1581 1582 1585 1586
1496 1500 1503 1501 1503 1492 1487 1493 1492 1498 1500 1501 1506 1508 1508 1505 1504 1506 1505 1508 1512 1518 1522 1526 1531 1535 1539 1542 1545 1548 1551 1555 1558 1560 1563 1565 1567 1569 1571 1573 1574 1576 1578 1580 1582 1583 1585 1587 1589
1495 1499 1501 1498 1490 1493 1479 1488 1489 1496 1499 1500 1502 1505 1503 1501 1502 1502 1503 1507 1511 1516 1521 1526 1531 1535 1539 1542 1545 1549 1552 1556 1559 1562 1564 1565 1568 1570 1572 1574 1576 1578 1580 1582 1584 1586 1588 1590 1591
1492 1492 1494 1494 1488 1487 1483 1482 1486 1490 1494 1495 1499 1499 1498 1497 1499 1500 1502 1504 1509 1514 1521 1526 1531 1535 1539 1543 1546 1550 1553 1556 1560 1562 1565 1567 1569 1571 1573 1576 1578 1580 1582 1584 1587 1589 1590 1592 1594
1486 1485 1487 1473 1483 1481 1479 1480 1483 1486 1489 1493 1497 1497 1495 1495 1497 1498 1500 1503 1509 1514 1520 1526 1531 1535 1539 1543 1546 1550 1554 1557 1560 1562 1565 1568 1570 1573 1576 1578 1580 1582 1584 1586 1588 1591 1593 1594 1596
1472 1477 1464 1464 1468 1477 1472 1477 1479 1482 1485 1488 1489 1492 1492 1492 1494 1496 1500 1503 1509 1515 1521 1525 1530 1535 1539 1543 1546 1550 1554 1558 1561 1563 1566 1569 1571 1574 1577 1579 1582 1584 1587 1590 1591 1593 1594 1596 1597
1466 1467 1464 1462 1464 1464 1467 1471 1474 1476 1480 1483 1487 1486 1487 1487 1491 1495 1499 1505 1509 1516 1521 1525 1529 1534 1538 1542 1546 1550 1553 1557 1560 1563 1567 1570 1572 1575 1578 1582 1583 1586 1588 1590 1593 1595 1596 1598 1601
1461 1455 1440 1449 1459 1462 1463 1467 1470 1472 1477 1479 1481 1481 1483 1483 1488 1493 1498 1505 1509 1516 1521 1524 1528 1533 1537 1541 1545 1549 1553 1556 1561 1563 1566 1569 1572 1576 1579 1582 1584 1586 1589 1591 1593 1595 1597 1600 1600
1447 1440 1428 1443 1452 1455 1459 1462 1464 1469 1472 1475 1477 1478 1480 1482 1485 1487 1493 1498 1505 1511 1517 1521 1526 1531 1536 1540 1543 1548 1552 1556 1560 1563 1566 1570 1572 1575 1577 1581 1584 1587 1590 1592 1595 1596 1599 1601 1602
1438 1417 1435 1437 1444 1452 1456 1458 1460 1461 1466 1466 1470 1473 1475 1479 1483 1486 1487 1491 1495 1505 1513 1519 1524 1530 1534 1538 1542 1546 1551 1555 1559 1562 1565 1569 1572 1575 1579 1583 1586 1589 1592 1594 1596 1599 1601 1603 1605
1438 1430 1435 1437 1440 1446 1449 1454 1452 1454 1456 1461 1465 1470 1471 1476 1479 1482 1487 1493 1499 1505 1509 1516 1521 1526 1532 1536 1541 1544 1549 1553 1557 1562 1566 1569 1572 1575 1580 1584 1587 1590 1593 1596 1598 1601 1603 1606 1607
1431 1430 1433 1435 1437 1440 1444 1444 1447 1446 1453 1457 1460 1463 1467 1471 1477 1481 1485 1489 1495 1502 1507 1513 1519 1524 1529 1534 1538 1543 1548 1553 1558 1562 1565 1569 1572 1576 1580 1585 1588 1591 1594 1597 1600 1602 1605 1608 1610
1427 1429 1430 1434 1435 1438 1439 1440 1444 1441 1449 1453 1456 1459 1462 1465 1472 1478 1483 1488 1494 1499 1503 1509 1517 1522 1527 1531 1536 1541 1546 1551 1557 1562 1566 1570 1574 1578 1581 1585 1588 1592 1595 1598 1601 1604 1607 1610 1613
1426 1427 1427 1428 1430 1433 1438 1439 1420 1439 1443 1448 1451 1456 1458 1462 1466 1471 1477 1483 1489 1495 1500 1507 1513 1519 1525 1531 1535 1540 1546 1552 1556 1562 1566 1571 1575 1579 1582 1586 1589 1593 1596 1599 1602 1606 1609 1612 1614
1426 1426 1423 1421 1426 1427 1434 1406 1432 1437 1440 1443 1446 1450 1453 1456 1462 1467 1473 1480 1486 1490 1496 1504 1509 1516 1521 1528 1534 1540 1545 1550 1556 1561 1566 1570 1575 1579 1582 1586 1590 1593 1597 1600 1603 1606 1609 1612 1615
1419 1410 1418 1419 1418 1425 1423 1422 1426 1431 1435 1438 1441 1444 1448 1451 1458 1465 1469 1476 1482 1487 1492 1499 1505 1512 1519 1526 1533 1539 1544 1550 1555 1560 1565 1570 1574 1579 1582 1586 1590 1593 1597 1601 1604 1606 1610 1612 1615
1415 1413 1409 1407 1414 1418 1416 1416 1422 1424 1430 1433 1436 1440 1444 1446 1451 1461 1467 1473 1479 1485 1490 1495 1502 1509 1517 1522 1530 1536 1541 1550 1555 1560 1564 1569 1573 1578 1582 1586 1590 1594 1597 1600 1603 1606 1609 1612 1615
1414 1412 1409 1411 1407 1410 1409 1417 1420 1423 1423 1425 1430 1435 1439 1442 1447 1456 1463 1469 1474 1482 1486 1491 1498 1504 1513 1519 1526 1534 1540 1547 1553 1558 1563 1567 1572 1577 1581 1586 1589 1593 1596 1599 1602 1605 1608 1611 1614
1407 1412 1412 1408 1414 1420 1408 1411 1419 1420 1420 1422 1426 1429 1433 1439 1444 1450 1458 1464 1470 1476 1483 1489 1495 1501 1509 1516 1523 1529 1535 1542 1549 1555 1561 1566 1570 1575 1580 1584 1588 1591 1594 1598 1600 1603 1605 1609 1612
1405 1406 1407 1409 1408 1410 1406 1410 1413 1413 1419 1419 1422 1425 1431 1433 1439 1445 1452 1458 1466 1472 1478 1484 1491 1498 1504 1511 1518 1526 1533 1540 1546 1551 1557 1562 1567 1572 1577 1582 1587 1590 1593 1596 1599 1602 1605 1607 1610
1411 1399 1400 1407 1413 1412 1403 1394 1402 1404 1411 1416 1417 1421 1425 1430 1435 1441 1447 1454 1459 1467 1475 1480 1487 1494 1499 1506 1513 1519 1523 1531 1538 1545 1551 1557 1564 1569 1574 1579 1584 1588 1591 1595 1598 1601 1604 1607 1609
1400 1394 1396 1402 1407 1412 1409 1404 1393 1401 1405 1406 1409 1415 1421 1426 1432 1435 1443 1450 1456 1463 1470 1476 1483 1490 1496 1502 1509 1516 1520 1526 1533 1540 1548 1553 1560 1566 1571 1576 1581 1585 1589 1593 1596 1599 1602 1605 1608
1398 1395 1399 1405 1410 1409 1411 1415 1402 1407 1411 1407 1411 1412 1416 1423 1428 1433 1439 1446 1452 1459 1466 1471 1479 1486 1493 1498 1506 1511 1516 1520 1528 1535 1542 1548 1555 1560 1566 1571 1576 1581 1585 1589 1593 1597 1600 1603 1606
1410 1410 1394 1400 1408 1406 1403 1408 1421 1428 1426 1422 1417 1412 1412 1418 1425 1430 1434 1439 1446 1453 1460 1468 1475 1482 1489 1495 1501 1507 1512 1518 1525 1531 1536 1542 1548 1554 1558 1565 1570 1576 1580 1585 1589 1593 1596 1599 1602
1425 1421 1418 1395 1395 1405 1403 1408 1421 1429 1425 1417 1412 1413 1412 1416 1421 1426 1429 1434 1442 1449 1457 1464 1471 1479 1486 1492 1498 1506 1512 1517 1518 1526 1532 1536 1542 1548 1553 1561 1564 1570 1574 1580 1584 1588 1592 1596 1599
1426 1424 1425 1416 1412 1409 1432 1428 1430 1424 1419 1417 1416 1411 1413 1415 1418 1423 1427 1431 1439 1445 1453 1461 1468 1475 1482 1489 1495 1501 1507 1513 1520 1526 1530 1531 1538 1543 1548 1555 1559 1564 1570 1575 1579 1583 1588 1592 1596
1436 1435 1417 1420 1403 1422 1436 1444 1439 1432 1430 1426 1422 1418 1414 1415 1417 1420 1426 1430 1435 1442 1449 1457 1465 1471 1479 1486 1491 1497 1503 1509 1515 1521 1527 1531 1537 1539 1543 1545 1553 1561 1564 1569 1574 1579 1583 1587 1592
1442 1446 1444 1445 1433 1438 1425 1453 1449 1443 1438 1434 1429 1424 1419 1417 1416 1420 1425 1430 1435 1440 1446 1453 1461 1468 1474 1482 1488 1494 1499 1505 1511 1517 1522 1529 1535 1536 1543 1544 1548 1554 1559 1562 1569 1574 1578 1582 1587
1459 1455 1453 1446 1438 1447 1457 1465 1453 1451 1443 1438 1434 1429 1423 1418 1418 1420 1425 1429 1433 1438 1443 1450 1458 1464 1471 1478 1484 1490 1495 1500 1506 1513 1518 1524 1529 1534 1539 1545 1546 1552 1554 1558 1564 1567 1572 1578 1583
Wind_Speed
16 12 12 12 3 2 12 8 4 6 5 10 9 9 11 7 6 4 4 19 25 34 35 32 28 26 25 23 21 19 19 18 18 17 18 18 18 18 18 18 19 19 20 20 22 23 24 24 24
17 13 16 5 4 6 13 7 11 10 7 8 12 12 5 9 17 6 3 20 35 37 37 33 30 28 27 24 21 19 18 18 19 19 18 18 18 19 19 20 19 19 20 21 22 23 23 23 23
19 16 8 4 4 15 13 5 8 7 11 8 7 10 5 5 11 12 8 21 38 39 38 34 31 29 28 24 21 20 19 19 19 19 19 18 19 20 21 21 20 20 22 24 24 23 24 23 22
15 10 2 4 11 7 18 6 9 8 12 9 8 3 9 20 6 15 15 23 38 40 38 34 33 30 27 24 22 21 21 20 20 20 20 20 20 21 22 22 21 23 24 24 25 24 23 22 23
19 7 4 6 9 5 3 7 19 9 8 16 15 5 5 11 23 12 17 29 41 43 40 35 33 30 28 26 23 23 22 21 21 20 20 20 21 22 22 20 21 24 25 24 24 24 23 23 22
12 5 5 19 11 9 4 13 14 9 16 8 11 7 10 13 15 17 19 35 44 42 40 36 33 31 29 26 24 23 23 21 21 21 21 23 23 21 21 21 21 23 24 24 25 24 22 22 20
16 6 15 17 20 6 11 16 10 11 10 12 10 11 16 20 18 14 26 37 44 41 40 35 34 31 29 27 25 24 22 22 22 23 23 23 23 24 24 25 23 23 21 20 21 24 25 22 21
26 5 17 12 12 14 9 20 17 20 12 7 13 7 8 27 21 19 29 40 40 38 39 36 35 33 31 28 26 25 24 24 25 25 25 26 26 25 25 23 24 22 19 20 19 19 14 21 23
27 8 20 25 18 6 13 10 14 14 16 19 17 9 7 12 25 27 33 39 33 37 40 36 36 34 33 30 28 26 25 25 26 25 29 29 28 25 24 21 20 18 18 19 16 16 15 15 12
15 18 29 12 9 10 10 12 22 11 16 12 18 17 12 15 31 36 41 44 38 44 41 38 38 36 34 32 31 29 27 27 27 27 30 24 23 24 25 24 20 19 20 19 18 19 19 19 20
33 24 19 12 20 21 14 9 20 13 10 19 25 26 20 23 33 37 44 48 49 49 43 41 39 38 36 35 33 32 30 30 28 26 24 23 24 23 21 22 21 23 21 21 20 19 18 17 17
20 31 25 20 16 18 18 10 9 24 18 26 35 33 21 28 38 39 39 43 43 40 45 43 42 41 39 37 35 35 34 33 30 28 25 25 25 23 22 23 24 24 23 21 21 20 19 18 19
27 20 20 29 11 22 25 18 19 19 27 18 21 28 32 30 36 40 39 44 47 44 43 44 43 42 41 39 38 37 35 32 30 28 26 26 25 24 24 25 24 23 22 21 19 18 19 21 21
10 29 30 22 15 14 14 11 14 12 23 33 20 26 34 32 36 38 36 41 48 43 47 46 43 43 42 42 40 38 36 32 31 28 26 27 25 26 26 25 24 23 22 21 20 21 23 24 24
22 18 14 18 27 7 18 16 28 10 19 28 27 27 31 36 36 41 43 44 50 44 45 47 46 45 44 41 40 39 36 33 31 28 27 27 26 26 25 25 24 24 23 23 24 26 24 22 18
12 10 15 18 12 15 9 34 20 26 19 20 27 28 32 38 41 43 43 46 50 44 49 50 47 46 44 42 38 37 36 35 32 30 28 28 26 26 26 25 26 26 27 25 25 23 21 18 16
7 8 21 7 22 11 24 11 8 30 30 20 25 27 33 34 39 39 43 45 49 49 49 52 47 47 45 46 42 38 36 35 33 31 30 30 29 27 25 25 26 26 26 25 22 22 18 18 16
5 4 7 24 14 22 22 21 4 25 30 28 26 28 29 34 39 39 41 44 46 51 51 50 49 48 48 45 44 40 39 34 32 32 31 32 31 29 27 26 25 25 24 23 23 21 20 16 14
15 4 7 4 13 21 29 17 21 4 24 30 29 28 31 33 39 38 42 44 46 49 52 51 50 51 47 45 45 40 37 37 35 33 33 33 32 30 28 26 25 25 24 24 23 22 19 21 17
15 16 7 7 10 9 18 22 21 14 12 25 30 28 30 31 33 43 42 44 46 47 52 51 50 49 49 44 45 43 42 39 36 35 33 35 33 32 29 27 26 25 25 25 25 23 25 22 21
4 16 15 11 2 10 13 17 19 23 21 19 23 30 35 35 34 40 46 44 46 49 50 54 50 47 52 49 47 43 44 42 39 37 37 38 37 34 31 29 26 25 25 25 25 24 22 22 23
4 10 8 9 4 4 11 8 17 19 24 13 16 25 32 34 35 41 45 45 47 49 50 52 52 48 50 50 50 49 46 49 44 42 40 41 39 36 33 30 28 26 25 25 24 24 22 20 20
4 2 15 10 6 1 4 4 3 17 15 23 12 23 29 35 36 41 47 45 40 48 51 50 51 47 46 48 52 51 53 49 45 45 42 43 42 38 35 32 29 28 26 26 24 24 23 21 19
6 3 5 3 3 5 7 3 2 4 10 12 15 23 29 31 38 38 41 47 47 49 51 50 49 46 47 47 50 52 54 50 47 47 45 46 45 42 38 36 34 32 29 28 26 24 24 23 20
13 5 4 4 3 4 9 6 2 9 9 6 8 12 31 31 37 36 38 46 50 51 52 50 48 45 48 47 45 50 51 44 45 48 48 51 49 46 43 41 36 36 33 31 28 27 27 25 22
7 1 2 3 4 4 4 5 1 4 9 18 15 12 13 28 33 37 37 47 47 50 47 47 46 45 43 42 40 42 42 44 48 49 46 53 51 49 44 43 40 40 36 34 31 29 28 26 24
7 5 1 1 1 4 4 3 4 14 16 18 21 5 10 23 32 37 37 44 47 46 47 46 45 44 41 40 38 39 37 39 40 42 45 48 49 48 46 43 42 40 37 35 32 30 29 26 25
4 5 3 4 3 4 3 3 7 18 16 14 13 18 7 17 29 33 36 41 45 45 45 44 43 42 38 40 37 36 31 35 39 38 37 44 46 41 40 42 39 39 38 34 33 32 29 27 25
12 5 4 1 1 3 2 3 8 12 11 10 11 15 15 4 21 29 35 37 42 42 41 42 40 38 39 34 35 35 36 33 31 33 29 36 32 29 28 24 27 34 37 37 35 33 29 27 26
13 7 3 2 5 3 2 2 8 9 9 13 15 18 12 9 10 23 29 33 34 37 37 37 37 37 36 33 34 38 35 38 35 32 32 29 32 32 32 37 43 38 37 38 36 36 32 27 25
Wind_Direction
211 198 183 167 193 112 229 223 159 149 164 204 164 179 191 190 172 208 223 184 174 175 170 169 172 172 169 170 168 167 166 160 155 152 148 143 142 142 140 136 133 129 126 123 124 121 117 120 119
196 182 174 183 197 195 228 169 201 167 173 163 194 188 172 235 231 264 252 185 172 174 170 168 172 171 169 170 167 164 158 154 151 151 150 147 145 144 141 139 137 137 132 126 125 122 119 119 120
190 177 176 183 201 217 232 193 182 189 164 150 169 211 195 218 225 223 233 181 171 174 171 167 172 171 170 169 165 160 154 152 153 153 150 148 144 143 142 142 138 133 130 126 124 121 121 122 121
176 184 223 214 212 233 234 174 173 154 212 184 177 188 218 226 223 222 221 184 173 175 173 169 174 171 169 168 165 159 154 154 154 152 149 149 148 146 146 146 139 134 131 128 125 123 121 122 121
184 172 200 223 222 248 198 170 172 174 188 210 191 215 223 214 217 232 205 187 175 176 171 170 175 172 171 169 163 159 158 158 157 155 151 151 150 151 148 144 140 134 131 128 124 121 119 117 117
180 189 206 223 212 220 185 183 166 175 205 203 195 205 243 239 214 216 198 183 177 175 170 172 175 174 172 171 166 162 161 160 159 159 156 150 147 145 142 140 139 138 138 136 131 123 116 114 113
207 193 228 232 215 218 214 179 173 181 179 210 208 204 235 237 231 217 184 180 176 174 170 173 175 174 173 172 168 165 163 161 163 161 160 153 145 142 142 143 142 136 131 136 135 128 120 114 110
206 183 232 222 208 225 188 182 204 195 202 185 194 198 216 228 214 193 178 174 175 175 174 176 176 175 174 171 170 167 167 166 166 167 159 150 147 145 145 144 142 144 140 140 143 140 134 118 112
212 221 225 218 207 212 186 180 196 214 205 205 197 216 204 206 188 177 166 173 172 174 178 179 178 178 175 170 168 171 170 170 169 167 163 158 152 155 156 157 160 157 148 141 136 134 133 148 161
206 227 232 212 206 199 193 191 190 185 193 211 203 209 222 195 177 173 172 175 175 174 179 183 181 178 176 173 172 175 172 171 174 176 172 170 174 172 170 166 167 154 143 132 127 123 123 125 122
230 231 221 200 193 201 205 197 200 191 203 198 202 203 211 186 178 177 180 182 178 175 181 186 183 180 180 175 174 174 174 175 176 179 172 172 171 168 165 156 144 141 140 137 133 129 125 123 120
251 231 244 216 208 188 206 210 215 207 206 220 224 219 208 180 183 185 180 182 179 179 184 188 184 183 182 179 177 176 176 180 178 177 174 175 170 164 160 152 148 147 145 143 140 139 137 137 134
241 244 232 239 195 195 205 213 219 225 214 222 215 214 214 195 190 189 185 184 179 183 188 188 185 185 185 182 181 181 182 182 178 177 177 175 168 159 152 153 152 151 150 151 148 147 143 137 134
271 242 250 258 227 224 198 216 205 225 218 220 215 210 206 201 190 190 189 186 183 184 187 191 189 186 188 187 186 182 186 183 179 178 177 172 164 160 156 155 153 154 154 154 150 144 142 138 134
256 257 261 235 242 231 208 240 230 193 202 220 220 221 211 206 199 192 193 189 190 191 192 189 191 187 192 189 189 188 185 185 180 178 177 175 166 163 159 156 155 155 155 152 149 147 145 143 140
241 240 229 220 226 234 211 238 223 206 199 202 213 211 212 211 200 196 196 193 191 189 194 189 193 192 195 193 191 188 188 186 182 179 177 174 170 168 163 161 158 155 154 154 153 153 154 152 146
193 236 231 232 214 210 204 231 207 204 205 204 207 207 208 207 200 196 197 196 193 196 196 197 195 197 195 190 191 192 191 189 185 182 180 175 173 172 171 168 164 162 162 163 165 163 167 158 149
225 193 237 224 203 209 231 224 167 195 202 212 214 214 211 204 195 196 200 196 197 198 199 199 196 197 198 194 192 193 190 190 188 186 184 179 178 178 179 176 175 174 176 175 172 172 165 165 162
258 267 231 327 211 203 217 225 215 214 206 207 204 208 210 209 200 195 200 198 198 200 201 203 202 198 201 195 192 191 190 189 193 193 188 183 183 183 183 185 184 183 185 182 179 178 178 164 164
250 246 267 297 233 294 215 226 217 237 208 210 210 205 204 207 196 196 198 201 201 199 203 203 203 198 200 204 196 193 191 192 195 190 192 188 187 188 188 192 190 190 190 190 189 193 178 176 168
243 214 231 240 326 290 204 222 210 219 238 211 215 213 211 208 195 197 199 203 202 201 204 205 206 210 205 197 199 197 192 195 193 194 195 194 191 190 192 193 196 195 197 198 196 197 198 187 180
218 204 209 177 176 252 193 213 214 204 210 212 209 212 214 210 206 199 199 201 199 203 204 200 204 208 209 209 201 200 202 195 199 195 198 196 195 195 195 194 197 201 201 201 201 200 203 205 199
268 213 171 184 145 228 333 225 270 192 201 210 205 215 214 210 201 197 198 203 200 201 202 203 205 209 211 209 208 203 200 205 198 200 200 197 197 197 199 198 198 203 204 203 206 204 205 207 214
306 155 132 108 140 213 147 65 338 155 244 213 215 216 220 209 196 196 197 203 201 202 205 204 205 207 213 209 209 208 205 199 202 198 201 201 200 198 200 202 201 204 204 207 208 209 210 208 215
12 52 143 154 171 210 159 149 31 330 334 306 299 255 216 212 197 191 189 199 200 202 205 206 205 208 210 214 220 211 209 207 212 208 203 203 202 203 198 207 202 207 203 207 208 211 211 212 218
302 132 102 118 147 175 236 159 164 326 324 360 340 266 225 206 196 195 190 198 202 203 204 205 207 209 212 215 221 212 216 217 208 210 211 209 205 205 202 209 203 207 205 207 207 210 214 216 221
327 30 290 243 222 100 328 348 265 360 8 1 355 264 209 196 192 198 193 199 204 204 206 209 208 207 210 217 213 212 221 217 218 219 217 211 210 209 207 207 208 203 206 207 209 210 215 218 222
75 311 19 5 41 47 345 45 335 347 346 351 357 360 19 183 183 191 196 196 200 202 203 206 208 207 211 213 211 213 218 221 220 221 221 220 216 211 208 202 203 208 209 209 211 211 214 217 220
11 13 349 204 301 146 133 353 337 332 339 350 351 4 16 118 169 189 195 197 202 204 203 205 206 207 204 214 211 216 213 220 216 222 221 227 224 221 221 236 224 214 212 219 216 214 214 215 219
34 3 321 41 353 33 100 340 339 331 348 359 357 4 29 49 165 181 191 194 191 195 197 202 206 207 205 211 216 215 213 211 213 219 218 220 224 218 222 227 224 218 225 219 218 219 212 217 220